Change the Weather History Date:

Saturday, November 3, 2012

  Actual Average Record
Temperature  
Mean Temperature 51 °F -  
Max Temperature 64 °F 60 °F 79 °F (2005)
Min Temperature 39 °F 41 °F 30 °F (2006)
Degree Days  
Heating Degree Days 14    
Growing Degree Days 1 (Base 50)    
Moisture  
Dew Point 34 °F    
Average Humidity 56    
Maximum Humidity 76    
Minimum Humidity 34    
Precipitation  
Precipitation 0.00 in - - ()
Sea Level Pressure  
Sea Level Pressure 30.15 in    
Wind  
Wind Speed 9 mph (North)    
Max Wind Speed 14 mph    
Max Gust Speed 18 mph    
Visibility 10 miles    
Events      
Averages and records for this station are not official NWS values.
T = Trace of Precipitation, MM = Missing Value Source: NWS Daily Summary

Daily Weather History Graph

Daily Weather History Graph

Search for Another Location

Airport or City:

Trip Planner

Search our weather history database for the weather conditions in past years. The results will help you decide how hot, cold, wet, or windy it might be!

Date:

Astronomy

Nov. 03, 2012 Rise Set
Actual Time 7:55 AM CDT 6:27 PM CDT
Civil Twilight 7:27 AM CDT 6:54 PM CDT
Nautical Twilight 6:57 AM CDT 7:25 PM CDT
Astronomical Twilight 6:26 AM CDT 7:56 PM CDT
Moon 10:12 PM CDT (11/3) 11:57 AM CDT (11/3)
Length of Visible Light 11h 26m
Length of Day
10h 32m
Waning Gibbous, 80% of the Moon is Illuminated
Nov 3
Waning Gibbous
Nov 6
Last Quarter
Nov 13
New
Nov 20
First Quarter
Nov 28
Full

Hourly Weather History & Observations

Time (CDT) Temp. Dew Point Humidity Pressure Visibility Wind Dir Wind Speed Gust Speed Precip Events Conditions
12:54 AM 54.0 °F 41.0 °F 62% 29.96 in 10.0 mi North - - N/A   Clear
1:54 AM 51.1 °F 39.0 °F 63% 29.99 in 10.0 mi North - - N/A   Clear
2:54 AM 48.9 °F 36.0 °F 61% 30.01 in 10.0 mi North 10.4 mph - N/A   Unknown
3:54 AM 46.0 °F 35.1 °F 66% 30.03 in 10.0 mi North - - N/A   Clear
4:54 AM 44.1 °F 33.1 °F 65% 30.06 in 10.0 mi North - - N/A   Clear
5:54 AM 43.0 °F 32.0 °F 65% 30.09 in 10.0 mi North - - N/A   Clear
6:54 AM 39.9 °F 32.0 °F 73% 30.13 in 10.0 mi North - - N/A   Clear
7:54 AM 39.0 °F 32.0 °F 76% 30.16 in 10.0 mi North - - N/A   Clear
8:54 AM 43.0 °F 33.1 °F 68% 30.19 in 10.0 mi North - - N/A   Clear
9:54 AM 46.9 °F 33.1 °F 59% 30.19 in 10.0 mi North - - N/A   Clear
10:54 AM 50.0 °F 33.1 °F 52% 30.21 in 9.0 mi North - - N/A   Clear
11:02 AM 51.8 °F 33.8 °F 50% 30.21 in 7.0 mi North - - N/A   Partly Cloudy
11:54 AM 53.1 °F 34.0 °F 48% 30.21 in 10.0 mi North 11.5 mph - N/A   Clear
12:54 PM 57.0 °F 34.0 °F 42% 30.19 in 10.0 mi North 12.7 mph 18.4 mph N/A   Clear
1:54 PM 61.0 °F 35.1 °F 38% 30.17 in 10.0 mi North 13.8 mph 18.4 mph N/A   Clear
2:54 PM 61.0 °F 35.1 °F 38% 30.16 in 10.0 mi North 11.5 mph - N/A   Clear
3:54 PM 63.0 °F 35.1 °F 35% 30.16 in 10.0 mi North 6.9 mph - N/A   Clear
4:54 PM 63.0 °F 34.0 °F 34% 30.15 in 10.0 mi NNE 10.4 mph - N/A   Clear
5:54 PM 61.0 °F 35.1 °F 38% 30.15 in 10.0 mi NNE 8.1 mph - N/A   Unknown
6:54 PM 57.0 °F 35.1 °F 44% 30.18 in 10.0 mi North 6.9 mph - N/A   Clear
7:54 PM 52.0 °F 35.1 °F 53% 30.20 in 10.0 mi North 4.6 mph - N/A   Clear
8:54 PM 48.9 °F 35.1 °F 59% 30.21 in 10.0 mi North 3.5 mph - N/A   Clear
9:54 PM 45.0 °F 33.1 °F 63% 30.21 in 10.0 mi Calm Calm - N/A   Clear
10:54 PM 44.1 °F 34.0 °F 68% 30.21 in 10.0 mi Calm Calm - N/A   Clear
11:54 PM 43.0 °F 34.0 °F 71% 30.22 in 10.0 mi Calm Calm - N/A   Clear